Regional Weather Roundup
Issued by NWS Sioux Falls, SD

Home | Current Version | Previous Version | Text Only | Print | Product List | Glossary On
Versions: 1 2 3 4 5 6 7 8 9 10 11 12 13 14 15 16 17 18 19 20 21 22 23 24 25 26 27 28 29 30 31 32 33 34 35 36 37 38 39 40 41 42 43 44 45 46 47 48 49 50
000
ASUS43 KFSD 300110
RWRFSD

WEATHER ROUNDUP FOR SE SOUTH DAKOTA/SW MINNESOTA/NW IOWA
NATIONAL WEATHER SERVICE SIOUX FALLS SD
800 PM CDT SUN MAR 29 2015

NOTE: "FAIR" INDICATES FEW OR NO CLOUDS BELOW 12,000 FEET WITH NO
SIGNIFICANT WEATHER AND OR OBSTRUCTIONS TO VISIBILITY.


SDZ038>040-050-052>070-300200-
SOUTHEAST SOUTH DAKOTA

CITY           SKY/WX    TMP DP  RH WIND       PRES   REMARKS
CHAMBERLAIN    CLEAR     52  24  33 NW6       30.05F
HURON          CLEAR     49  20  31 NW9       30.02S
MADISON        FAIR      48  19  32 NW10      30.03S
MITCHELL       CLEAR     51  21  30 NW7       30.05S
SIOUX FALLS    CLEAR     49  20  31 NW8       30.04R
WINNER         FAIR      58  20  22 W5        30.07S
YANKTON        CLEAR     52  18  25 NW9       30.08R
$$

MNZ071-072-080-081-089-090-097-098-300200-
SOUTHWEST MINNESOTA

CITY           SKY/WX    TMP DP  RH WIND       PRES   REMARKS
FAIRMONT       CLEAR     52  23  32 NW17G25   29.98R
JACKSON        CLEAR     50  19  29 NW15G24   30.00R
LUVERNE        CLEAR     50  19  29 NW9       30.04R
MARSHALL       CLEAR     48  21  34 NW13      30.01R
MONTEVIDEO     CLEAR     50  27  40 N9        29.98S
PIPESTONE      CLEAR     50  19  29 N9        30.02R
REDWOOD FALLS  PTCLDY    51  25  36 NW15G21   29.97R
TRACY          CLEAR     50  25  37 NW15      30.01R
WINDOM         CLEAR     50  23  34 NW14      30.00R
WORTHINGTON    CLEAR     48  21  34 NW14      30.03R
$$

IAZ001>003-012>014-020>022-031-032-NEZ013-014-SDZ071-300200-
NORTHWEST IOWA

CITY           SKY/WX    TMP DP  RH WIND       PRES   REMARKS
CHEROKEE       CLEAR     51  22  31 NW7       30.04R
DENISON        CLEAR     52  23  32 NW8       30.04R
ESTHERVILLE    CLEAR     48  25  40 NW13      29.99R
LE MARS        CLEAR     52  23  32 N6        30.06R
ORANGE CITY    CLEAR     54  18  24 NW8       30.04R
SHELDON        CLEAR     50  23  34 NW12      30.02R
SIOUX CITY     CLEAR     54  21  27 NW10      30.06R
SPENCER        CLEAR     49  26  41 NW14      30.02R
STORM LAKE     CLEAR     52  21  30 NW13      30.04R
$$

ABBREVIATIONS USED IN REMARKS
   TC - TEMPERATURE IN CELSIUS
  WCI - WIND CHILL INDEX
   HX - HEAT INDEX
  VSB - VISIBILITY




USA.gov is the U.S. government's official web portal to all federal, state and local government web resources and services.